Regional Weather Roundup
Issued by NWS

Home | Current Version | Previous Version | Text Only | Print | Product List | Glossary Off
Versions: 1 2 3 4 5 6 7 8 9 10 11 12 13 14 15 16 17 18 19 20 21 22 23 24 25 26 27 28 29 30 31 32 33 34 35 36 37 38 39 40 41 42 43 44 45 46 47 48 49 50

000
ASUS45 KTFX 292119
RWRMT
MONTANA HOURLY WEATHER ROUNDUP
NATIONAL WEATHER SERVICE GREAT FALLS MT
319 PM MDT FRI AUG 29 2014

NOTE: "FAIR" INDICATES FEW OR NO CLOUDS BELOW 12000 FEET WITH NO
SIGNIFICANT WEATHER AND/OR OBSTRUCTIONS TO VISIBILITY.

* THESE STATIONS ARE NOT UNDER NWS QUALITY CONTROL. THEY DO NOT
   REPORT WEATHER SUCH AS PRECIPITATION OR FOG.

MTZ001>007-043-292200-
WEST OF THE DIVIDE
CITY           SKY/WX    TMP DP  RH WIND       PRES   REMARKS
KALISPELL      SUNNY     79  45  30 S13G20    29.86F
MISSOULA       SUNNY     81  37  21 VRB3      29.89F
BUTTE          SUNNY     77  32  19 W12       30.02F
MULLAN PASS    SUNNY     66  37  34 VRB6      30.05F
* LINCOLN      N/A       76  35  23 W6G14      N/A
* LOOKOUT PASS N/A       73  40  30 SE4G14     N/A
* POLSON       N/A       83  44  25 S4G9       N/A
* RONAN APT    SUNNY     81  41  24 N/A        N/A
* SEELEY LAKE  N/A       78  38  24 N4         N/A
* THOMP F APT  SUNNY     73  43  34 S9G16      N/A
$$

MTZ008-052>055-292200-
SOUTHWEST MONTANA
CITY           SKY/WX    TMP DP  RH WIND       PRES   REMARKS
BOZEMAN        SUNNY     79  43  28 VRB3      29.97F
DILLON         SUNNY     81  37  21 VRB6      29.99F
W YELLOWSTONE  PTCLDY    73  37  27 SW15G24   30.13F
* THREE FORKS  SUNNY     79  72  79 N/A        N/A
* BOULDER HILL N/A       75  34  22 S7G14      N/A
* MONIDA PASS  N/A       71  42  35 S16G26     N/A
* RAYNOLDS PAS N/A       70  54  57 S11G19     N/A
* WHITEHALL    N/A       80  49  34 SE5        N/A
* WISE RIVER   N/A       77  27  16 NW12G20    N/A
$$

MTZ009>010-012-014-046-048-049-054-292200-
EAST SLOPES AND CENTRAL MONTANA
CITY           SKY/WX    TMP DP  RH WIND       PRES   REMARKS
CUT BANK       PTCLDY    75  46  36 SE6       29.90F
GREAT FALLS    PTSUNNY   75  39  27 S7        29.91F
HELENA         PTCLDY    79  45  30 E7        29.93F
MALMSTROM AFB  PTCLDY    77  39  26 W6        29.92F
* CONRAD       PTCLDY    79  46  31 SE8        N/A
* EAST GLACIER N/A       70  41  35 W18G29     N/A
* MONARCH      N/A       72  25  17 SW12       N/A
* PENDROY      N/A       75  41  30 SE6G16     N/A
* ROGERS PASS  N/A       72  32  23 NE6G16     N/A
* SAINT MARY   N/A       71  45  39 SW7G14     N/A
* SWEET GRASS  N/A       71  48  44 S17G22     N/A
* WHITE SULPH  N/A       77  33  20 SW5G15     N/A
$$

MTZ011-013-016-021-035-040-045-047-050-051-292200-
NORTH CENTRAL MONTANA
CITY           SKY/WX    TMP DP  RH WIND       PRES   REMARKS
HAVRE          SUNNY     75  50  42 VRB7      29.91F
LEWISTOWN      SUNNY     77  48  36 E12       29.97F
* CHINOOK      SUNNY     73  54  51 E12G20    29.91F
* FORT BENTON  SUNNY     79  48  34 SE7       29.90F
* CHESTER      N/A       73  47  40 S4G12      N/A
* DENTON       N/A       79  43  28 E10        N/A
* GEYSER       N/A       75  41  30 NE4        N/A
* JUDITH GAP   N/A       72  44  37 S17        N/A
* LOMA         N/A       76  49  39 SE12       N/A
$$

MTZ017>020-022>027-061-062-292200-
NORTHEAST MONTANA
CITY           SKY/WX    TMP DP  RH WIND       PRES   REMARKS
GLASGOW        PTSUNNY   70  50  49 VRB5      29.98F
GLENDIVE       SUNNY     70  54  57 NE6       30.00F
JORDAN         SUNNY     70  52  53 VRB3      29.99F
SIDNEY         CLOUDY    70  54  57 NE8       29.99F
WOLF POINT     SUNNY     73  50  44 N6        29.98F
* BEAVER HILL  N/A       68  52  57 NW11G16    N/A
* CIRCLE       N/A       70  52  53 N/A        N/A
* LINDSAY DVD  N/A       67  50  55 N3G9       N/A
* NAVAJO       N/A       69  47  46 NE2        N/A
$$

MTZ028>042-056>058-292200-
SOUTHCENTRAL AND SOUTHEAST MONTANA
CITY           SKY/WX    TMP DP  RH WIND       PRES   REMARKS
BAKER          PTSUNNY   72  54  53 N10       30.02F
BILLINGS       SUNNY     73  52  48 E8        30.00F
LIVINGSTON     PTCLDY    81  46  29 VRB5      29.98F
MILES CITY     SUNNY     72  50  46 CALM      30.00F
* LAUREL APT   SUNNY     75  54  48 NE7        N/A
* ROUNDUP APT  SUNNY     73  48  41 N/A        N/A
* ALZADA       N/A       72  53  51 NW12       N/A
* HYSHAM       N/A       72  46  40 E4G10      N/A
* LAME DEER    N/A       65  53  65 N2G11      N/A
* REED POINT   N/A       76  53  45 NE9G16     N/A
* ROSCOE HILL  N/A       70  43  38 E9         N/A
$$

REGIONAL REPORTS...DAKOTAS
CITY           SKY/WX    TMP DP  RH WIND       PRES   REMARKS
WILLISTON      CLOUDY    72  48  43 N12       29.97F
DICKINSON      PTSUNNY   70  55  59 N13       29.97F
BEACH          N/A       68  55  63 NW10G18   30.01S
CROSBY         SUNNY     70  46  42 N10       29.98F
TIOGA          PTSUNNY   68  46  45 N5        30.00F
WATFORD CITY   PTSUNNY   68  50  53 N10       29.96S
BISMARCK       CLOUDY    70  57  64 N20       29.91S
GRAND FORKS    CLOUDY    70  64  81 N18G28    29.76R
FARGO          CLOUDY    75  64  69 W9        29.75F
BUFFALO SD     SUNNY     73  54  51 N18G28    29.93S
RAPID CITY     PTCLDY    79  54  42 NW13      29.99F
$$

REGIONAL REPORTS...WYOMING/IDAHO/WASHINGTON
CITY           SKY/WX    TMP DP  RH WIND       PRES   REMARKS
GILLETTE       SUNNY     73  52  48 VRB5      30.05F
SHERIDAN       PTCLDY    73  52  48 S7        30.04F
CODY           PTCLDY    77  46  33 NE10      30.01F
YELLOWSTONE LA SUNNY     66  30  26 W13G21    30.25F
SALMON         SUNNY     79  46  31 N3        29.90F
MULLAN PASS    SUNNY     66  37  34 VRB6      30.05S
SAND POINT     PTSUNNY   79  46  31 SW12G20   29.85F
SPOKANE        PTSUNNY   81  39  22 SW15G22   29.86F
$$

REGIONAL REPORTS...ALBERTA
CITY           SKY/WX    TMP DP  RH WIND       PRES   REMARKS
CALGARY        CLOUDY    66  54  65 S10G17    29.80F
LETHBRIDGE     PTSUNNY   75  48  39 CALM      29.83F
MEDICINE HAT   PTSUNNY   75  52  45 S17       29.86F
EDMONTON       CLOUDY    66  48  52 S18G26    29.75F
WATERTON GATE  N/A       72  45  38 SW12       N/A
CARDSTON       N/A       73  48  41 SW8        N/A
MILK RIVER     N/A       75  45  34 SW14G22    N/A
$$

REGIONAL REPORTS...SASKATCHEWAN
CITY           SKY/WX    TMP DP  RH WIND       PRES   REMARKS
SWIFT CURRENT  SUNNY     68  46  45 S12G17    29.94F
MOOSE JAW      SUNNY     70  45  41 CALM      29.98F
REGINA         N/A       66  43  43 NW6       29.98F
VAL MARIE      N/A       70  52  53 SE7        N/A
ASSINIBOIA     N/A       68  39  35 NE3        N/A
CORONACH       N/A       70  43  38 E6         N/A

$$



USA.gov is the U.S. government's official web portal to all federal, state and local government web resources and services.